Date String (YYYY-MM-DD hh:mm:ss) UTC,Instrument flags,Ambient pressure (hPa),Sample flow (lpm),Bypass flow (lpm),Sample temperature (°C),Ambient temperature (°C),ASC tube jacket temperature (°C),LED temperature (°C),Box temperature (°C),Sample RH (%),Span deviation,Mass concentration (μg/m³),Mass concentration (μg/m³),Mass concentration (μg/m³)
DateTimeUTC,F1_M11,P_M11,Q1_M11,Q2_M11,T1_M11,T2_M11,T3_M11,T4_M11,T5_M11,U1_M11,ZSPAN_M11,X2_M11,X0_M11,X1_M11
2022-10-05 23:00:00,,0833.1,5.00,0.00,29.9,28.7,00.0,38.5,31.8,16.8,0000.0,0003.94,0008.56,0003.60
2022-10-05 23:01:00,,0833.1,5.01,0.00,29.9,28.9,00.0,38.6,31.8,16.2,0000.0,0003.94,0007.71,0003.58
2022-10-05 23:02:00,,0833.1,4.99,0.00,29.9,29.0,00.0,38.6,31.9,16.3,0000.0,0003.93,0007.77,0003.56
2022-10-05 23:03:00,,0833.0,5.01,0.00,30.0,29.0,00.0,38.6,31.9,16.3,0000.0,0003.94,0008.48,0003.56
2022-10-05 23:04:00,,0833.1,5.02,0.00,30.0,29.1,00.0,38.6,32.0,17.0,0000.0,0003.92,0009.16,0003.55
2022-10-05 23:05:00,,0833.0,4.99,0.00,30.0,29.2,00.0,38.6,32.0,17.1,0000.0,0003.94,0009.44,0003.56
2022-10-05 23:06:00,,0833.0,5.01,0.00,30.1,28.1,00.0,38.6,31.9,16.8,0000.0,0003.93,0009.41,0003.56
2022-10-05 23:07:00,,0833.0,5.01,0.00,30.0,27.0,00.0,38.6,31.7,17.1,0000.0,0003.92,0009.60,0003.57
2022-10-05 23:08:00,,0833.0,4.99,0.00,29.9,27.0,00.0,38.6,31.6,17.2,0000.0,0003.94,0010.28,0003.61
2022-10-05 23:09:00,,0833.1,4.99,0.00,29.9,27.2,00.0,38.6,31.5,17.2,0000.0,0003.96,0010.33,0003.63
2022-10-05 23:10:00,,0833.0,5.01,0.00,29.8,27.5,00.0,38.5,31.5,17.0,0000.0,0003.99,0009.88,0003.67
2022-10-05 23:11:00,,0833.1,5.01,0.00,29.8,27.8,00.0,38.5,31.6,16.9,0000.0,0004.00,0009.65,0003.70
2022-10-05 23:12:00,,0833.0,5.00,0.00,29.8,28.1,00.0,38.5,31.6,17.1,0000.0,0004.06,0009.87,0003.73
2022-10-05 23:13:00,,0833.0,5.00,0.00,29.8,28.3,00.0,38.5,31.7,17.0,0000.0,0004.10,0009.66,0003.75
2022-10-05 23:14:00,,0833.1,5.01,0.00,29.8,28.5,00.0,38.5,31.7,17.2,0000.0,0004.11,0009.08,0003.76
2022-10-05 23:15:00,,0833.0,5.00,0.00,29.9,28.6,00.0,38.5,31.8,17.3,0000.0,0004.12,0008.60,0003.77
2022-10-05 23:16:00,,0833.1,5.02,0.00,29.9,28.8,00.0,38.5,31.8,17.6,0000.0,0004.14,0008.29,0003.78
2022-10-05 23:17:00,,0833.0,5.00,0.00,29.9,28.9,00.0,38.6,31.9,17.1,0000.0,0004.19,0008.37,0003.78
2022-10-05 23:18:00,,0833.1,4.99,0.00,30.0,29.0,00.0,38.6,31.9,16.9,0000.0,0004.19,0008.29,0003.78
2022-10-05 23:19:00,,0833.1,5.01,0.00,30.0,29.1,00.0,38.6,31.9,16.5,0000.0,0004.18,0007.94,0003.78
2022-10-05 23:20:00,,0833.1,4.99,0.00,30.0,29.1,00.0,38.6,32.0,16.7,0000.0,0004.17,0007.98,0003.78
2022-10-05 23:21:00,,0833.1,5.00,0.00,30.0,29.2,00.0,38.6,32.0,16.7,0000.0,0004.16,0007.94,0003.77
2022-10-05 23:22:00,,0833.1,5.00,0.00,30.1,28.1,00.0,38.6,31.9,16.5,0000.0,0004.17,0008.02,0003.77
2022-10-05 23:23:00,,0833.0,5.00,0.00,30.0,27.0,00.0,38.6,31.7,16.5,0000.0,0004.16,0008.00,0003.77
2022-10-05 23:24:00,,0833.0,5.01,0.00,29.9,27.0,00.0,38.6,31.7,16.8,0000.0,0004.14,0007.81,0003.77
2022-10-05 23:25:00,,0833.0,5.00,0.00,29.9,27.2,00.0,38.6,31.5,16.6,0000.0,0004.13,0007.71,0003.77
2022-10-05 23:26:00,,0833.1,5.00,0.00,29.8,27.5,00.0,38.5,31.5,16.5,0000.0,0004.12,0008.29,0003.78
2022-10-05 23:27:00,,0833.1,4.99,0.00,29.8,27.8,00.0,38.5,31.6,16.5,0000.0,0004.12,0008.25,0003.78
2022-10-05 23:28:00,,0833.1,5.00,0.00,29.8,28.1,00.0,38.5,31.6,16.4,0000.0,0004.06,0008.11,0003.77
2022-10-05 23:29:00,,0833.1,5.01,0.00,29.8,28.3,00.0,38.5,31.7,16.5,0000.0,0004.06,0008.11,0003.77
2022-10-05 23:30:00,,0833.1,4.99,0.00,29.8,28.5,00.0,38.5,31.7,16.5,0000.0,0004.09,0007.80,0003.76
2022-10-05 23:31:00,,0833.1,5.01,0.00,29.9,28.6,00.0,38.5,31.7,16.5,0000.0,0004.09,0007.74,0003.75
2022-10-05 23:32:00,,0833.1,4.99,0.00,29.9,28.8,00.0,38.5,31.8,16.4,0000.0,0004.10,0007.84,0003.73
2022-10-05 23:33:00,,0833.1,5.01,0.00,29.9,28.9,00.0,38.6,31.9,16.7,0000.0,0004.10,0007.83,0003.72
2022-10-05 23:34:00,,0833.1,4.99,0.00,30.0,29.0,00.0,38.6,31.9,17.2,0000.0,0004.09,0007.78,0003.73
2022-10-05 23:35:00,,0833.2,4.99,0.00,30.0,29.1,00.0,38.6,31.9,17.3,0000.0,0004.11,0007.92,0003.74
2022-10-05 23:36:00,,0833.2,5.01,0.00,30.0,29.1,00.0,38.6,32.0,17.4,0000.0,0004.14,0008.37,0003.76
2022-10-05 23:37:00,,0833.2,4.99,0.00,30.1,29.1,00.0,38.6,32.0,17.2,0000.0,0004.18,0008.29,0003.77
2022-10-05 23:38:00,,0833.2,5.00,0.00,30.1,28.1,00.0,38.6,31.9,17.2,0000.0,0004.20,0008.55,0003.80
2022-10-05 23:39:00,,0833.1,5.00,0.00,30.0,26.9,00.0,38.6,31.8,17.0,0000.0,0004.25,0008.92,0003.82
2022-10-05 23:40:00,,0833.2,5.00,0.00,30.0,26.9,00.0,38.6,31.7,16.8,0000.0,0004.25,0009.64,0003.84
2022-10-05 23:41:00,,0833.2,4.99,0.00,29.9,27.2,00.0,38.6,31.6,16.9,0000.0,0004.25,0010.16,0003.86
2022-10-05 23:42:00,,0833.1,5.00,0.00,29.8,27.5,00.0,38.5,31.6,17.2,0000.0,0004.25,0010.73,0003.88
2022-10-05 23:43:00,,0833.2,5.00,0.00,29.8,27.8,00.0,38.5,31.6,17.3,0000.0,0004.26,0010.73,0003.90
2022-10-05 23:44:00,,0833.2,5.00,0.00,29.8,28.1,00.0,38.5,31.7,17.4,0000.0,0004.29,0010.83,0003.91
2022-10-05 23:45:00,,0833.2,4.99,0.00,29.8,28.3,00.0,38.5,31.7,18.0,0000.0,0004.28,0010.78,0003.90
2022-10-05 23:46:00,,0833.2,5.01,0.00,29.8,28.5,00.0,38.5,31.7,17.6,0000.0,0004.27,0010.68,0003.89
2022-10-05 23:47:00,,0833.1,4.99,0.00,29.9,28.6,00.0,38.5,31.7,17.9,0000.0,0004.26,0010.75,0003.88
2022-10-05 23:48:00,,0833.1,5.01,0.00,29.9,28.7,00.0,38.5,31.8,17.6,0000.0,0004.25,0010.27,0003.88
2022-10-05 23:49:00,,0833.2,4.99,0.00,29.9,28.8,00.0,38.6,31.9,17.9,0000.0,0004.28,0010.20,0003.87
2022-10-05 23:50:00,,0833.2,5.01,0.00,29.9,28.9,00.0,38.6,31.9,17.4,0000.0,0004.27,0010.04,0003.86
2022-10-05 23:51:00,,0833.3,5.00,0.00,30.0,29.0,00.0,38.6,31.9,16.8,0000.0,0004.27,0009.49,0003.86
2022-10-05 23:52:00,,0833.3,4.99,0.00,30.0,29.1,00.0,38.6,32.0,17.0,0000.0,0004.26,0009.12,0003.85
2022-10-05 23:53:00,,0833.3,5.01,0.00,30.0,28.7,00.0,38.6,31.9,17.3,0000.0,0004.26,0008.53,0003.85
2022-10-05 23:54:00,,0833.3,5.01,0.00,30.0,27.2,00.0,38.6,31.7,17.4,0000.0,0004.28,0008.54,0003.85
2022-10-05 23:55:00,,0833.3,5.00,0.00,29.9,26.7,00.0,38.6,31.6,17.6,0000.0,0004.28,0008.74,0003.86
2022-10-05 23:56:00,,0833.3,5.00,0.00,29.8,26.9,00.0,38.6,31.5,17.6,0000.0,0004.29,0008.89,0003.87
2022-10-05 23:57:00,,0833.2,4.99,0.00,29.8,27.2,00.0,38.5,31.5,17.6,0000.0,0004.30,0008.90,0003.88
2022-10-05 23:58:00,,0833.3,5.00,0.00,29.8,27.5,00.0,38.5,31.5,17.6,0000.0,0004.32,0008.54,0003.89
2022-10-05 23:59:00,,0833.3,5.01,0.00,29.8,27.8,00.0,38.5,31.5,17.7,0000.0,0004.32,0008.32,0003.89
